This demonstration page uses our WeatherBlox Daily Observations layout. Learn more.

Left ArrowRight Arrow

44.89941, -97.11507

Hourly Observations for May 28, 2019

Temp ( °F °C ) Dew Point ( °F °C ) Humidity (%) Winds ( mph kmh ) Pressure ( in mb ) Visibility ( mi km ) Precip ( " mm )
12:31 am 00:31 Cloudy 54 12.2 49 9.4 83 83 Calm 29.87 1012 10 16 0.00 0.00
12:43 am 00:43 Mostly Cloudy 53 11.7 49 9.4 86 86 ENE 6 9 29.88 1012 10 16 0.00 0.00
12:53 am 00:53 Mostly Cloudy 53 11.7 48 8.9 83 83 ENE 5 7 29.88 1012 10 16 0.00 0.00
1:13 am 01:13 Mostly Cloudy 53 11.7 49 9.4 86 86 E 5 7 29.88 1012 10 16 0.00 0.00
1:53 am 01:53 Mostly Clear 52 11.1 49 9.4 89 89 Calm 29.87 1012 10 16 0.00 0.00
2:53 am 02:53 Partly Cloudy 48 8.9 46 7.8 93 93 N 7 11 29.86 1011 10 16 0.00 0.00
3:36 am 03:36 Cloudy 51 10.6 47 8.3 86 86 ENE 8 13 29.86 1011 10 16 0.00 0.00
3:53 am 03:53 Cloudy 51 10.6 47 8.3 86 86 E 9 15 29.85 1011 10 16 0.00 0.00
4:53 am 04:53 Cloudy 50 10 47 8.3 89 89 E 5 7 29.85 1011 10 16 0.00 0.00
5:53 am 05:53 Mostly Cloudy 49 9.4 46 7.8 90 90 ENE 3 6 29.87 1012 10 16 0.00 0.00
6:03 am 06:03 Partly Cloudy 48 8.9 45 7.2 89 89 NE 6 9 29.88 1012 10 16 0.00 0.00
6:53 am 06:53 Sunny 48 8.9 45 7.2 89 89 NE 6 9 29.86 1011 10 16 0.00 0.00
7:11 am 07:11 Partly Cloudy 49 9.4 45 7.2 86 86 NNE 8 13 29.86 1011 10 16 0.00 0.00
7:20 am 07:20 Mostly Cloudy 49 9.4 46 7.8 90 90 NE 9 15 29.86 1011 10 16 0.00 0.00
7:53 am 07:53 Cloudy 50 10 46 7.8 86 86 ENE 7 11 29.88 1012 10 16 0.00 0.00
8:53 am 08:53 Cloudy 50 10 46 7.8 86 86 ENE 12 19 29.86 1011 10 16 0.00 0.00
9:53 am 09:53 Cloudy 53 11.7 47 8.3 80 80 ENE 14 22 29.85 1011 10 16 0.00 0.00
10:01 am 10:01 Cloudy 53 11.7 47 8.3 80 80 ENE 14 22 29.85 1011 10 16 0.00 0.00
10:53 am 10:53 Cloudy 54 12.2 47 8.3 77 77 ENE 13 20 29.86 1011 10 16 0.00 0.00
11:02 am 11:02 Cloudy 54 12.2 47 8.3 77 77 ENE 10 17 29.85 1011 10 16 0.00 0.00
11:53 am 11:53 Cloudy 55 12.8 47 8.3 74 74 ENE 13 20 29.87 1012 10 16 0.00 0.00
12:53 pm 12:53 Cloudy 57 13.9 48 8.9 72 72 NE 12 19 29.86 1011 10 16 0.00 0.00
1:32 pm 13:32 Partly Cloudy 59 15 49 9.4 69 69 NE 9 15 29.82 1010 10 16 0.00 0.00
1:53 pm 13:53 Mostly Sunny 59 15 49 9.4 69 69 ENE 12 19 29.84 1011 10 16 0.00 0.00
2:53 pm 14:53 Mostly Cloudy 61 16.1 49 9.4 65 65 ENE 7 11 29.84 1010 10 16 0.00 0.00
3:02 pm 15:02 Partly Cloudy 62 16.7 51 10.6 67 67 VRB 3 6 29.81 1009 10 16 0.00 0.00
3:53 pm 15:53 Mostly Cloudy 63 17.2 50 10 63 63 E 6 9 29.84 1011 10 16 0.00 0.00
4:53 pm 16:53 Mostly Cloudy 62 16.7 49 9.4 62 62 NNE 5 7 29.83 1010 10 16 0.00 0.00
5:53 pm 17:53 Mostly Cloudy 62 16.7 49 9.4 62 62 NE 10 17 29.80 1009 10 16 0.00 0.00
6:53 pm 18:53 Mostly Sunny 61 16.1 49 9.4 65 65 NNE 14 22 29.79 1009 10 16 0.00 0.00
7:53 pm 19:53 Sunny 60 15.6 49 9.4 67 67 NNE 10 17 29.78 1008 10 16 0.00 0.00
8:53 pm 20:53 Sunny 57 13.9 47 8.3 69 69 NNE 9 15 29.80 1009 10 16 0.00 0.00
9:53 pm 21:53 Clear 51 10.6 45 7.2 80 80 N 9 15 29.82 1010 10 16 0.00 0.00
10:53 pm 22:53 Clear 48 8.9 42 5.6 80 80 N 6 9 29.82 1010 10 16 0.00 0.00
11:53 pm 23:53 Clear 46 7.8 41 5 83 83 N 6 9 29.81 1010 10 16 0.00 0.00

Powered by AerisWeather